Regional Weather Roundup
Issued by NWS

Home | Current Version | Previous Version | Text Only | Print | Product List | Glossary On
Versions: 1 2 3 4 5 6 7 8 9 10 11 12 13 14 15 16 17 18 19 20 21 22 23 24 25 26 27 28 29 30 31 32 33 34 35 36 37 38 39 40 41 42 43 44 45 46 47 48 49 50
000
ASUS43 KOAX 171310
RWRNE

WEATHER ROUNDUP FOR NEBRASKA
NATIONAL WEATHER SERVICE OMAHA NE
800 AM CDT THU AUG 17 2017

NOTES: SATELLITE DATA IS BEING USED TO AUGMENT CLOUD COVER ABOVE
       12000 FEET.
       "FAIR" INDICATES FEW OR NO CLOUDS BELOW 12,000 FEET WITH NO
       SIGNIFICANT WEATHER AND/OR OBSTRUCTIONS TO VISIBILITY.


NEZ001>004-019>022-054>056-171400-
NEBRASKA PANHANDLE

CITY           SKY/WX    TMP DP  RH WIND       PRES   REMARKS
SCOTTSBLUFF    CLEAR     54  49  83 E7        30.06S
ALLIANCE       CLEAR     52  49  89 SE7       30.06R
CHADRON        CLEAR     54  51  90 S3        30.00R
GORDON         FAIR      55  50  84 W5        30.03S
KIMBALL        CLEAR     53  51  95 SW5       30.13S
SIDNEY         CLEAR     56  53  90 SW8       30.12R
$$

NEZ057>060-069>072-079>082-171400-
SOUTHWEST NEBRASKA

CITY           SKY/WX    TMP DP  RH WIND       PRES   REMARKS
NORTH PLATTE   SUNNY     54  53  97 W3        30.08R
IMPERIAL       SUNNY     54  51  90 W5        30.10R
LEXINGTON      SUNNY     56  54  93 NW3       30.06S
MCCOOK         SUNNY     58  57  97 W8        30.08R
OGALLALA       SUNNY     52  51  97 CALM      30.09R
$$

NEZ005>010-023>029-035>040-094-171400-
NORTH CENTRAL NEBRASKA

CITY           SKY/WX    TMP DP  RH WIND       PRES   REMARKS
VALENTINE      SUNNY     54  49  83 CALM      30.01R
AINSWORTH      SUNNY     56  51  85 W3        30.02R
BROKEN BOW     SUNNY     58  51  78 CALM      30.03R
O`NEILL        SUNNY     56  53  88 W5        29.99R
ORD            SUNNY     54  51  90 CALM      30.00R
THEDFORD       SUNNY     56  54  91 CALM      30.05R
$$

NEZ041-046>049-061>064-073>077-083>087-171400-
SOUTH CENTRAL NEBRASKA

CITY           SKY/WX    TMP DP  RH WIND       PRES   REMARKS
GRAND ISLAND   SUNNY     58  56  93 W8        30.01R
AURORA         SUNNY     57  57  98 W6        30.00R
HASTINGS       SUNNY     58  54  86 W9        30.04R
HEBRON         SUNNY     62  59  91 W3        30.01R
HOLDREGE       SUNNY     59  53  81 W7        30.05R
KEARNEY        SUNNY     60  54  80 W6        30.04S
YORK           SUNNY     59  57  94 W9        29.99R
$$

NEZ011>018-030>034-042>045-171400-
NORTHEAST NEBRASKA

CITY           SKY/WX    TMP DP  RH WIND       PRES   REMARKS
NORFOLK        SUNNY     60  55  83 W10       29.93S
ALBION         SUNNY     58  55  91 NW3       29.98R
BLAIR          HVY RAIN  63  59  88 W8        29.91S
COLUMBUS       SUNNY     61  57  87 W8        29.97R
FREMONT        SUNNY     63  59  88 W10       29.93R
TEKAMAH        SUNNY     64  59  83 W7        29.90R
WAYNE          SUNNY     62  59  91 W10       29.92R
$$

NEZ050>053-065>068-078-088>093-171400-
SOUTHEAST NEBRASKA

CITY           SKY/WX    TMP DP  RH WIND       PRES   REMARKS
LINCOLN        SUNNY     65  58  78 W8        29.96R
OMAHA EPPLEY   MOSUNNY   66  59  78 NW12      29.90R
BEATRICE       SUNNY     62  60  93 W8        29.97R
FALLS CITY     SUNNY     65  61  87 W10       29.92R
NEBRASKA CITY  SUNNY     64  64 100 W10       29.93R
PLATTSMOUTH    SUNNY     64  59  85 W9        29.91R
$$

NEZ044-045-051>053-067-171400-
OMAHA AREA

CITY           SKY/WX    TMP DP  RH WIND       PRES   REMARKS
OMAHA EPPLEY   MOSUNNY   66  59  78 NW12      29.90R
BLAIR          HVY RAIN  63  59  88 W8        29.91S
FREMONT        SUNNY     63  59  88 W10       29.93R
MILLARD        SUNNY     66  60  81 NW13      29.91S
OFFUTT AFB     SUNNY     65  59  81 W9        29.90R
PLATTSMOUTH    SUNNY     64  59  85 W9        29.91R
WAHOO          FAIR      64  60  88 W10       29.93R
$$




USA.gov is the U.S. government's official web portal to all federal, state and local government web resources and services.